Home > Weather > Surat > Past weeks

Flag for India Weather for the Past 2 Weeks in Surat, Gujarat, India

Now
84 °F

Clear.


Feels Like: 81 °F
Forecast: 68 / 87 °F
Wind: 9 mph from Northeast

Location: Ahmadabad Airport

Current Time: Feb 14, 2016 at 2:16:59 PM

Latest Report: Feb 14, 2016 at 1:30 PM


Visibility: 4 mi

Pressure: 29.95 "Hg

Humidity: 18%

Dew point: 36 °F

Location of SuratLocation

Historic Weather in Surat — Graph

°F

Surat Temperature Yesterday

Maximum temperature yesterday: 84 °F (at 3:30 PM)
Minimum temperature yesterday: 61 °F (at 6:00 AM)
Average temperature yesterday: 71 °F

High & Low Weather Summary for the Past Weeks

 TemperatureHumidityPressure
High90 °F (Feb 9, 3:00 PM)88% (Jan 31, 4:30 AM)30.09 "Hg (Jan 31, 4:30 AM)
Low52 °F (Feb 8, 5:30 AM)13% (Feb 8, 5:00 PM)29.77 "Hg (Feb 6, 4:00 PM)
Average71 °F45%29.95 "Hg
* Reported Jan 30 12:30 PM — Feb 14 1:00 PM, Surat, Weather by CustomWeather, © 2016

Note: Actual official high and low records may vary slightly from our data, if they occured in-between our weather recording intervals... More about our weather records

Advertising

Surat Weather History for the Previous 24 Hours

 ConditionsComfort  
Time TempWeatherWind HumidityBarometerVisibility
1:00 PM
Sun, Feb 14
82 °FClear.7 mph25%29.98 "Hg3 mi
12:30 PM81 °FClear.7 mph26%29.98 "Hg3 mi
12:00 PM79 °FClear.7 mph28%30.01 "Hg3 mi
11:00 AM75 °FClear.7 mph31%30.04 "Hg2 mi
10:30 AM73 °FClear.7 mph33%30.04 "Hg2 mi
9:30 AM66 °FClear.3 mph37%30.04 "Hg1 mi
9:00 AM63 °FClear.3 mph49%30.04 "Hg1 mi
8:30 AM57 °FHaze.2 mph63%30.04 "Hg1 mi
7:30 AM54 °FHaze.No wind67%30.01 "Hg1 mi
7:00 AM52 °FHaze.No wind77%29.98 "Hg2 mi
6:30 AM52 °FHaze.No wind72%29.98 "Hg2 mi
6:00 AM52 °FHaze.No wind77%29.95 "Hg2 mi
5:30 AM54 °FHaze.No wind72%29.95 "Hg2 mi
5:00 AM54 °FHaze.No wind72%29.95 "Hg2 mi
4:30 AM55 °FClear.No wind63%29.95 "Hg2 mi
4:00 AM55 °FClear.2 mph59%29.95 "Hg2 mi
2:30 AM57 °FClear.2 mph55%29.95 "Hg2 mi
2:00 AM61 °FClear.5 mph48%29.95 "Hg2 mi
1:30 AM61 °FClear.3 mph48%29.95 "Hg2 mi
1:00 AM61 °FClear.3 mph45%29.98 "Hg2 mi
12:30 AM63 °FClear.3 mph42%29.98 "Hg2 mi
12:00 AM63 °FClear.3 mph42%29.98 "Hg2 mi
11:30 PM
Sat, Feb 13
64 °FClear.2 mph40%29.98 "Hg2 mi
11:00 PM64 °FClear.No wind40%29.98 "Hg2 mi
10:30 PM66 °FClear.3 mph37%29.98 "Hg2 mi
10:00 PM64 °FClear.3 mph40%29.98 "Hg2 mi
9:30 PM66 °FClear.3 mph37%29.98 "Hg2 mi
9:00 PM68 °FClear.No wind35%29.98 "Hg2 mi
8:30 PM68 °FClear.No wind33%29.98 "Hg2 mi
8:00 PM70 °FClear.No wind33%29.95 "Hg2 mi
7:30 PM73 °FClear.3 mph27%29.95 "Hg2 mi
7:00 PM73 °FClear.2 mph25%29.92 "Hg2 mi
6:30 PM75 °FClear.3 mph24%29.92 "Hg2 mi
6:00 PM79 °FClear.5 mph21%29.89 "Hg3 mi
5:30 PM81 °FClear.6 mph18%29.89 "Hg3 mi
5:00 PM81 °FClear.6 mph18%29.89 "Hg3 mi
4:30 PM82 °FClear.6 mph17%29.89 "Hg3 mi
4:00 PM82 °FClear.6 mph17%29.89 "Hg3 mi
3:30 PM84 °FClear.7 mph18%29.89 "Hg3 mi
3:00 PM82 °FClear.7 mph20%29.92 "Hg3 mi
2:30 PM82 °FClear.6 mph17%29.92 "Hg3 mi
2:00 PM82 °FClear.7 mph20%29.92 "Hg3 mi
Weather by CustomWeather, © 2016

See weather overviewHow to use our weather pages